Tracking 19906 objects as of 24-Oct-2019
HD Live streaming from Space Station
objects crossing your sky now

SL-3 DEB

Track SL-3 DEB now!
10-day predictions


NORAD ID: 9664
Int'l Code: 1977-002D
Perigee: 887.6 km
Apogee: 900.9 km
Inclination: 81.3 °
Period: 102.7 minutes
Semi major axis: 7265 km
RCS: 0.0154 m2 (small)
Launch date: January 6, 1977
Source: Commonwealth of Independent States (former USSR) (CIS)
Launch site: PLESETSK MISSILE AND SPACE COMPLEX (PKMTR)

Note: This is SATELLITE DEBRIS
aabbcc
Your satellite tracking list
Your tracking list is empty




NASA's NSSDC Master Catalog

Two Line Element Set (TLE):
1  9664U 77002D   19296.76670456 -.00000028 +00000-0 -26706-4 0  9996
2  9664 081.2633 290.2725 0009158 017.5822 342.5660 14.01919839188340
Source of the keplerian elements: AFSPC